Simultaneous Nadir Overpasses (SNOs) Predictions

Prediction of SNOs between NOAA-20 and AQUA Satellite Orbit:

Table of predicted SNOs for the next 14.0 days since TLE Epoch: 4/20/2024
Index Date (NOAA-20) Time (NOAA-20) Lat,Lon (NOAA-20) SZA (NOAA-20 ) Date (AQUA) Time (AQUA) Lat,Lon (AQUA) SZA (AQUA ) Distance(km) Time Diff (sec)
1 04/21/2024 00:31:33 -81.22, -86.10 103.67 04/21/2024 00:32:19 -81.22, -86.08 103.71 0.58 46
2 04/21/2024 01:22:16 81.24, 81.90 76.22 04/21/2024 01:21:40 81.24, 81.96 76.23 1.05 36
3 04/23/2024 13:25:40 -81.23, 80.88 104.60 04/23/2024 13:25:56 -81.23, 80.78 104.60 1.70 16
4 04/23/2024 14:16:23 81.25,-111.14 75.29 04/23/2024 14:15:17 81.25,-111.20 75.34 1.02 66
5 04/26/2024 01:29:03 81.23, 79.83 74.61 04/26/2024 01:30:07 81.23, 79.83 74.57 0.27 64
6 04/26/2024 02:19:47 -81.24,-112.25 105.50 04/26/2024 02:19:29 -81.25,-112.20 105.49 0.90 18
7 04/28/2024 14:23:10 81.24,-113.42 73.76 04/28/2024 14:23:37 81.24,-113.38 73.74 0.78 27
8 04/28/2024 15:13:54 -81.25, 54.52 106.35 04/28/2024 15:12:59 -81.25, 54.58 106.32 1.08 55
9 05/01/2024 02:26:33 -81.23,-114.30 107.01 05/01/2024 02:27:42 -81.24,-114.37 107.04 1.13 69
10 05/01/2024 03:17:16 81.25, 53.61 72.90 05/01/2024 03:17:03 81.25, 53.56 72.92 0.81 13
11 05/03/2024 15:20:39 -81.24, 52.25 107.77 05/03/2024 15:21:04 -81.24, 52.36 107.80 1.89 25



Historial Predications of SNOs between NOAA-20 and AQUA
